{"data":{"norad_id":48782,"epoch":"2026-09-20T04:41:06.550080Z","epoch_age_seconds":48326,"freshness":"FRESH","line1":"1 48782U 21045R   26263.19521470 -.00000101  00000+0 -30227-3 0  9999","line2":"2 48782  87.8988 240.2557 0001958  76.5675 283.5674 13.15547666256836","mean_motion":13.15547666,"eccentricity":0.0001958,"inclination_deg":87.8988,"raan_deg":240.2557,"arg_perigee_deg":76.5675,"mean_anomaly_deg":283.5674,"bstar":-0.00030227,"rev_number":25683,"period_min":109.46011590583,"perigee_km":1200.2900164696,"apogee_km":1203.2583096811,"semimajor_km":7579.9111630753,"source":"CELESTRAK","updated_at":"2026-09-20T09:00:44.618135Z"}}